Find Starlink 31407

NORAD ID: 59250 Int'l Des: 2024-049 Owner: SPXS Country: US Constellation: starlink operational
LEOCIRCULAR

Current View

Loading 3D Globe...

About Starlink 31407

Starlink 31407 (NORAD 59250) is a starlink constellation satellite (v2 mini) launched Mar 16, 2024 by SPXS of US. It operates in LEO, CIRCULAR orbit with a mass of 730.00 kg.

Upcoming Passes

Passes for default location (London). Set your location on the main map for personalized predictions.

Altitude History

Loading altitude history...

Two-Line Element Set

1 59250U 24049V 26237.11055877 .00001216 00000-0 53715-4 0 9999
2 59250 43.0001 261.1540 0000993 275.0215 85.0523 15.27580559138285
Epoch: Aug 25, 2026 • Age: 33 hours

Current Status

Altitude 486.3 km
Apogee / Perigee N/A
Velocity 7.63 km/s
Sub-Earth Point 40.78°N, 149.52°W
Launch Date Mar 16, 2024
Age 2.4 years
Type internet

Technical Details

Classification Payload
Mass 730.00 kg
Dry Mass 700.00 kg
Total Mass 730.00 kg
Length 0.30 m
Diameter 4.10 m
Span 29.00 m
Shape Box + pan
Manufacturer SPXS
Bus Type Starlink V2M
Phase Status In Orbit
Owner/State SPXS/US

Most Searched